TimeFrame on Redefined Productions
Outwar Sigil TimeFrame

Sigil TimeFrame

96 Gods Updated: 2019-08-19 13:00:32
NameTime LeftWindow Opens
Old World Drake53d 09:072019-06-27 05:16:00
Skybrine The Inescapable2d 04:432019-08-17 09:40:00
Q-SEC Commander1d 09:152019-08-18 05:08:00
Esquin, the Kinetic Master1d 01:572019-08-18 12:26:00
Slashbrood, Devourer of the Blackness0d 20:432019-08-18 17:40:00
Rancid, Lord of Thugs0d 10:472019-08-19 03:36:00
Hyrak, Bringer of Nightmares0d 10:432019-08-19 03:40:00
Karvaz, Lord of Alsayic0d 08:572019-08-19 05:26:00
Sigil, Lich of Woe0d 08:432019-08-19 05:40:00
Ebliss, Fallen Angel of Despair0d 06:522019-08-19 07:31:00
Skarthul the Avenged0d 06:432019-08-19 07:40:00
The Emerald Assassin0d 06:132019-08-19 08:10:00
Sylvanna TorLai0d 06:112019-08-19 08:12:00
Lady Chaos, Queen of the Abyss0d 05:232019-08-19 09:00:00
Pinosis0d 02:572019-08-19 11:26:00
Jorun the Blazing Swordsman0d 02:552019-08-19 11:28:00
Keeper of Nature0d 00:322019-08-19 13:51:00
Baron Mu, Dark Rider of the Undead0d 00:172019-08-19 14:41:00
Dlanod, the Crazed Chancellor0d 01:342019-08-19 15:58:00
Lord Varan0d 04:312019-08-19 18:55:00
Crane0d 06:052019-08-19 20:29:00
Brutalitar, Lord of the Underworld0d 06:492019-08-19 21:13:00
Gnorb0d 06:592019-08-19 21:23:00
Shadow0d 07:022019-08-19 21:26:00
Mistress of the Sword0d 07:042019-08-19 21:28:00
Terrance, Rebel of Rallis0d 07:062019-08-19 21:30:00
Anvilfist0d 07:422019-08-19 22:06:00
Quiver, The Renegade0d 10:232019-08-20 00:47:00
Rotborn, Eater of the Dead0d 10:352019-08-20 00:59:00
Smoot the Yeti0d 11:002019-08-20 01:24:00
Freezebreed, The Frozen Manipulator0d 11:432019-08-20 02:07:00
Amalgamated Apparition0d 12:112019-08-20 02:35:00
Vitkros, Hydra of the Deep0d 12:202019-08-20 02:44:00
Tsort0d 12:522019-08-20 03:16:00
Lord Xordam0d 13:142019-08-20 03:38:00
Garland, The Lord Keeper0d 13:232019-08-20 03:47:00
Samatha Dark-Soul0d 14:562019-08-20 05:20:00
Synge, The Red Dragon0d 16:422019-08-20 07:06:00
Tylos, The Lord Master0d 17:282019-08-20 07:52:00
Nayark the Mummified Sorcerer0d 18:062019-08-20 08:30:00
Hackerphage, Protector of the Gateway0d 19:302019-08-20 09:54:00
Lord Narada0d 20:142019-08-20 10:38:00
Zikkir the Dark Archer0d 20:522019-08-20 11:16:00
Raiyar, the Shadow Master0d 21:042019-08-20 11:28:00
Bolkor, the Holy Master0d 22:122019-08-20 12:36:00
Crolvak, the Fire Master0d 22:172019-08-20 12:41:00
Melt Bane, The Forbidden Demon Dragon0d 22:182019-08-20 12:42:00
Ancient Magus Tarkin0d 22:502019-08-20 13:14:00
Volgan the Living Ironbark1d 01:022019-08-20 15:26:00
Threk, King of Lords1d 01:022019-08-20 15:26:00
Sarcrina the Astral Priestess1d 01:212019-08-20 15:45:00
Kretok, Descendant of Nature1d 01:322019-08-20 15:56:00
Nessam1d 02:452019-08-20 17:09:00
Dreg nor, Keeper of the Infernal Essence1d 03:082019-08-20 17:32:00
Lord Sibannac1d 05:152019-08-20 19:39:00
Murderface1d 06:432019-08-20 21:07:00
Anguish1d 06:502019-08-20 21:14:00
Balerion, Dragon of Dread1d 07:422019-08-20 22:06:00
Nar Zhul, Slayer of All1d 09:062019-08-20 23:30:00
Ganja the Stone Golem1d 09:412019-08-21 00:05:00
Varsanor, Master of Darkness1d 12:362019-08-21 03:00:00
Akkel the Enflamed Warrior1d 12:462019-08-21 03:10:00
Bloodchill the Grizzly1d 14:222019-08-21 04:46:00
Grivvek, Protector of the Brood1d 15:592019-08-21 06:23:00
Howldroid, Tormentor of the Pit1d 18:122019-08-21 08:36:00
Straya, the Underworld Ruler1d 18:122019-08-21 08:36:00
Viserion, the Necrodragon1d 18:362019-08-21 09:00:00
King Ashnar, Lord of the Unliving1d 18:412019-08-21 09:05:00
Great Lord Ganeshan1d 22:082019-08-21 12:32:00
Windstrike The Vile2d 00:202019-08-21 14:44:00
Zertan, The Collector2d 00:402019-08-21 15:04:00
Traxodon the Plaguebringer2d 01:182019-08-21 15:42:00
Crantos, Defender of Ultimation2d 01:242019-08-21 15:48:00
Lord Suka2d 01:352019-08-21 15:59:00
Felroc, Overseer of Hellfire2d 01:542019-08-21 16:18:00
Numerocure, The Black Messenger of Evil2d 05:032019-08-21 19:27:00
Jazzmin, Maiden of Vitality2d 05:252019-08-21 19:49:00
Lady Ariella2d 05:352019-08-21 19:59:00
Detox2d 05:412019-08-21 20:05:00
Nafir, God of Desolation2d 11:142019-08-22 01:38:00
Archdevil Yirkon2d 12:442019-08-22 03:08:00
Ag Nabak the Abomination2d 15:262019-08-22 05:50:00
Emperor Neudeus, Controller of the Universe2d 18:032019-08-22 08:27:00
Gorganus of the Wood2d 20:212019-08-22 10:45:00
Ormsul the Putrid3d 04:332019-08-22 18:57:00
Dexor, Victor of Veldara3d 07:572019-08-22 22:21:00
Xynak, the Arcane Master3d 17:132019-08-23 07:37:00
Lacuste of the Swarm4d 02:282019-08-23 16:52:00
Kro Shuk, Doomslayer6d 06:342019-08-25 20:58:00
Shaik, Servant of Arkron122d 07:512019-04-19 06:32:00
Rook, Hand of Arkron121d 02:232019-04-20 12:00:00
Noxious Slug68d 00:292019-06-12 13:54:00
Beast of Cards67d 11:432019-06-13 02:40:00
Animated Captain53d 10:142019-06-27 04:09:00
Jade Dragonite53d 09:112019-06-27 05:12:00
Wanhiroeaz the Devourer1d 13:002019-08-18 01:23:00